DW1774 Weather Reports


time (UTC)temp
C
wind
direction
speed
KPH
gust
KPH
rain 1hr
cm
rain 24hr
cm
rain mn
cm
humidity
%
barometer
mb
20260502200904 26 7 11.3 24.1 0.00 6.17 0.00 39 1018.5
20260502200404 25 342 8.0 25.7 0.00 6.17 0.00 38 1018.4
20260502195904 25 20 14.5 25.7 0.00 6.17 0.00 37 1018.5
20260502195404 25 359 12.9 24.1 0.00 6.17 0.00 38 1018.6
20260502194904 26 14 11.3 24.1 0.00 6.17 0.00 39 1018.8
20260502194404 25 26 3.2 19.3 0.00 6.17 0.00 40 1018.9
20260502193904 25 55 9.7 22.5 0.00 6.17 0.00 42 1019.1
20260502193404 25 349 11.3 22.5 0.00 6.17 0.00 38 1019.2
20260502192906 25 1 11.3 22.5 0.00 6.17 0.00 39 1019.2
20260502192404 25 27 12.9 22.5 0.00 6.17 0.00 40 1019.3
20260502191904 25 334 9.7 24.1 0.00 6.17 0.00 38 1019.3
20260502191404 25 356 8.0 24.1 0.00 6.17 0.00 40 1019.3
20260502190904 25 24 11.3 24.1 0.00 6.17 0.00 43 1019.3
20260502185903 25 67 8.0 20.9 0.00 6.17 0.00 43 1019.4
20260502184404 24 11 8.0 20.9 0.00 6.17 0.00 45 1019.5
20260502183405 24 3 12.9 22.5 0.00 6.17 0.00 43 1019.6
20260502182404 25 33 11.3 22.5 0.00 6.17 0.00 44 1019.7
20260502180905 25 30 9.7 24.1 0.00 6.20 0.00 45 1019.9
20260502180404 25 22 9.7 24.1 0.00 6.20 0.00 47 1020.1
20260502170405 23 33 9.7 29.0 0.00 6.88 0.00 54 1020.1
20260502163905 22 42 11.3 25.7 0.00 8.15 0.00 55 1020.1
20260502163403 22 19 8.0 22.5 0.00 8.15 0.00 58 1020.1
20260502162404 22 27 11.3 25.7 0.00 8.15 0.00 58 1020.1
20260502161904 22 36 8.0 19.3 0.00 8.15 0.00 61 1020.1
20260502161405 21 30 8.0 19.3 0.00 8.15 0.00 62 1020.0
20260502160904 21 12 12.9 24.1 0.00 8.15 0.00 61 1020.0
20260502160404 21 41 11.3 24.1 0.00 8.15 0.00 62 1019.9
20260502151905 20 62 9.7 20.9 0.00 8.15 0.00 72 1020.0
20260502151404 19 11 8.0 20.9 0.00 8.15 0.00 73 1020.0
20260502150903 18 18 9.7 20.9 0.00 8.15 0.00 73 1020.1
20260502150404 18 57 8.0 19.3 0.00 8.15 0.00 75 1020.1
20260502130403 13 41 8.0 19.3 0.00 8.31 0.00 89 1018.8
20260502123404 12 25 6.4 19.3 0.00 8.38 0.00 89 1018.2
20260502122903 12 10 4.8 19.3 0.00 8.46 0.00 89 1018.2
20260502121903 12 14 4.8 14.5 0.00 8.84 0.00 89 1018.1
20260502121404 12 25 6.4 14.5 0.00 8.89 0.00 89 1018.0
20260502120903 12 357 6.4 12.9 0.00 8.94 0.00 89 1018.0
20260502115903 12 4 4.8 14.5 0.00 9.04 0.00 89 1018.0
20260502115405 12 0 4.8 16.1 0.00 9.12 0.00 89 1017.9
20260502114903 12 5 8.0 16.1 0.00 9.12 0.00 89 1017.8
20260502113904 12 2 9.7 16.1 0.00 9.12 0.00 89 1017.6
20260502113404 12 16 6.4 19.3 0.00 9.12 0.00 89 1017.6
20260502112903 12 0 6.4 19.3 0.00 9.12 0.00 89 1017.6
20260501235904 15 50 6.4 24.1 0.13 9.12 8.15 92 1010.5
20260501235405 15 41 8.0 25.7 0.15 9.12 8.15 92 1010.4
20260501234904 15 11 16.1 25.7 0.13 9.09 8.13 92 1010.4
20260501234404 15 4 16.1 25.7 0.13 9.09 8.13 92 1010.6
20260501233904 16 14 11.3 25.7 0.13 9.09 8.13 92 1010.6
20260501233404 15 357 8.0 24.1 0.13 9.09 8.13 92 1010.1
20260501232904 16 9 9.7 24.1 0.13 9.07 8.10 92 1009.9
20260501232404 16 37 9.7 20.9 0.13 9.07 8.10 92 1009.7
20260501231404 16 34 9.7 24.1 0.13 9.04 8.08 92 1009.5
20260501230405 16 28 8.0 16.1 0.13 8.99 8.03 92 1010.0
20260501225904 16 6 6.4 16.1 0.15 8.99 8.03 92 1010.3
20260501225404 16 71 8.0 16.1 0.13 8.97 8.00 92 1010.3
20260501224404 16 32 8.0 19.3 0.15 8.97 8.00 92 1010.3
20260501223904 16 55 8.0 19.3 0.18 8.97 8.00 92 1010.0
20260501223404 16 64 8.0 20.9 0.23 8.97 8.00 92 1009.8
20260501222905 16 74 11.3 20.9 0.25 8.94 7.98 92 1009.9
20260501222404 16 62 9.7 22.5 0.28 8.94 7.98 92 1010.0
20260501221903 16 73 9.7 22.5 0.36 8.92 7.95 92 1010.5
20260501221405 16 15 6.4 19.3 0.38 8.92 7.95 92 1010.9
20260501220404 16 33 6.4 16.1 0.53 8.86 7.90 92 1010.8
20260501215904 16 9 4.8 12.9 0.66 8.84 7.87 92 1011.1
20260501214904 16 61 6.4 16.1 0.79 8.81 7.85 92 1010.5
20260501214405 16 37 4.8 19.3 0.97 8.81 7.85 92 1010.2
20260501213904 16 68 8.0 19.3 0.97 8.79 7.82 92 1009.8
20260501213404 16 51 8.0 19.3 0.94 8.74 7.77 92 1009.3
20260501212405 16 87 8.0 16.1 0.99 8.66 7.70 92 1009.8
20260501211904 16 52 6.4 19.3 1.19 8.56 7.59 92 1009.7
20260501210904 17 32 6.4 19.3 1.55 8.48 7.52 92 1009.8
20260501210404 17 51 9.7 19.3 1.47 8.33 7.37 92 1010.0
20260501205905 17 17 1.6 19.3 1.40 8.18 7.21 92 1010.2
20260501205404 17 40 4.8 19.3 1.45 8.13 7.16 92 1010.1
20260501204905 17 29 8.0 19.3 1.60 8.03 7.06 92 1010.0
20260501203404 17 51 9.7 25.7 2.29 7.80 6.83 92 1009.0
20260501202903 17 55 9.7 25.7 2.31 7.80 6.83 92 1008.9
20260501202404 17 78 9.7 22.5 2.18 7.67 6.71 92 1008.7
20260501201905 17 52 9.7 22.5 1.91 7.37 6.40 92 1008.3
20260501201404 17 30 6.4 16.1 1.73 7.11 6.15 92 1009.2